User: anonymous   Login
Location: Libas
(9.8833°N, 125.9833°E)
Time: 02:53:02
(UTC+00:00)
Language:

Cosmos 44 Rocket - Orbit

View from above orbital plane
View from above orbital plane
View from above satellite
View from above satellite

Ground track
Ground track

The orbit data is extracted from the following two-line orbital elements,

1 00877U 64053B   21018.81977205 -.00000066  00000-0  11732-4 0  9992
2 00877  65.0782  59.6004 0079307 306.7112  52.6719 14.59414334992921
Epoch (UTC): 18 January 2021 19:40:28
Eccentricity: 0.0079307
inclination: 65.0782°
perigee height: 639 km
apogee height: 751 km
right ascension of ascending node: 59.6004°
argument of perigee: 306.7112°
revolutions per day: 14.59414334
mean anomaly at epoch: 52.6719°
orbit number at epoch: 99292

The dashed part of the orbit path shows where the satellite is in the earth's shadow,  

DLR